Regional Weather Roundup
Issued by NWS

Home | Current Version | Previous Version | Graphics & Text | Print | Product List | Glossary On
Versions: 1 2 3 4 5 6 7 8 9 10 11 12 13 14 15 16 17 18 19 20 21 22 23 24 25 26 27 28 29 30 31 32 33 34 35 36 37 38 39 40 41 42 43 44 45 46 47 48 49 50
000
ASUS43 KLMK 230902
RWRKY
KENTUCKY REGIONAL WEATHER ROUNDUP
NATIONAL WEATHER SERVICE LOUISVILLE KY
400 AM EST THU FEB 23 2017

NOTE "FAIR" INDICATES FEW OR NO CLOUDS BELOW 12,000 FEET
WITH NO SIGNIFICANT WEATHER AND/OR OBSTRUCTIONS TO VISIBILITY.

KYZ001>023-026-027-061>063-070>075-231000-
WESTERN AND SOUTH CENTRAL KENTUCKY

CITY           SKY/WX    TMP DP  RH WIND       PRES   REMARKS
PADUCAH        CLEAR     58  54  86 SW3       29.78S
HENDERSON      MOCLDY    55  52  88 S3        29.78S
OWENSBORO      CLOUDY    58  55  90 S6        29.80S
HOPKINSVILLE   CLEAR     58  58  97 S9        29.80F
BOWLING GREEN  MOCLDY    57  54  89 CALM      29.82S
GLASGOW        NOT AVBL
$$

KYZ024-025-028>034-038-045-046-053-231000-
NORTH CENTRAL KENTUCKY

CITY           SKY/WX    TMP DP  RH WIND       PRES   REMARKS
LOUISVILLE/SDF PTCLDY    62  55  77 SW9       29.80S
LOUISVILLE/LOU CLEAR     60  54  80 S3        29.81R
FORT KNOX      MOCLDY    57  57  99 S5        29.80R
$$

KYZ035>037-039>044-047>052-055>060-089>105-231000-
NORTHEAST KENTUCKY

CITY           SKY/WX    TMP DP  RH WIND       PRES   REMARKS
LEXINGTON      CLEAR     55  52  89 S7        29.82S
COVINGTON      MOCLDY    58  56  93 SW5       29.80R
FRANKFORT      CLOUDY    57  52  83 CALM      29.81R
$$

KYZ054-064>069-076>088-106>120-231000-
SOUTHEAST KENTUCKY

CITY           SKY/WX    TMP DP  RH WIND       PRES   REMARKS
JACKSON        CLEAR     53  50  89 S3        29.85F
LONDON         FOG       47  45  93 SE5       29.85F VSB 1/4
SOMERSET       PTCLDY    52  52 100 S5        29.87S
MIDDLESBORO    FOG       45  45 100 CALM      29.89S VSB 1/4
MONTICELLO     CLOUDY    53  52  96 NE6       29.86F
$$




USA.gov is the U.S. government's official web portal to all federal, state and local government web resources and services.